Weather History for Litchfield, MN

Change the Weather History Date:

Thursday, September 27, 2012

  Actual Average Record
Temperature  
Mean Temperature 52 °F -  
Max Temperature 71 °F 69 °F 92 °F (1956)
Min Temperature 33 °F 43 °F 30 °F (1967)
Degree Days  
Heating Degree Days 13    
Growing Degree Days 2 (Base 50)    
Moisture  
Dew Point 33 °F    
Average Humidity 57    
Maximum Humidity 100    
Minimum Humidity 20    
Precipitation  
Precipitation 0.00 in - - ()
Sea Level Pressure  
Sea Level Pressure 30.22 in    
Wind  
Wind Speed 1 mph (ESE)    
Max Wind Speed 8 mph    
Max Gust Speed -    
Visibility 10 miles    
Events      
Averages and records for this station are not official NWS values.
T = Trace of Precipitation, MM = Missing Value Source: NWS Daily Summary

Daily Weather History Graph

Daily Weather History Graph

Search for Another Location

Airport:

Trip Planner

Search our weather history database for the weather conditions in past years. The results will help you decide how hot, cold, wet, or windy it might be!

Date:

Astronomy

Sep. 27, 2012 Rise Set
Actual Time 7:11 AM CDT 7:05 PM CDT
Civil Twilight 6:42 AM CDT 7:34 PM CDT
Nautical Twilight 6:08 AM CDT 8:08 PM CDT
Astronomical Twilight 5:33 AM CDT 8:43 PM CDT
Moon 5:40 PM CDT 4:36 AM CDT
Length of Visible Light 12h 51m
Length of Day
11h 53m
Waxing Gibbous, 94% of the Moon is Illuminated
Sep 27
Waxing Gibbous
Sep 29
Full
Oct 8
Last Quarter
Oct 15
New
Oct 21
First Quarter

Hourly Weather History & Observations

Time (CDT) Temp. Dew Point Humidity Pressure Visibility Wind Dir Wind Speed Gust Speed Precip Events Conditions
12:33 AM 37.4 °F 30.2 °F 75% 30.22 in 10.0 mi Calm Calm - N/A   Clear
12:54 AM 37.4 °F 30.2 °F 75% 30.22 in 10.0 mi Calm Calm - N/A   Clear
1:13 AM 37.4 °F 30.2 °F 75% 30.22 in 10.0 mi Calm Calm - N/A   Clear
1:33 AM 37.4 °F 28.4 °F 70% 30.22 in 10.0 mi Calm Calm - N/A   Clear
1:53 AM 37.4 °F 30.2 °F 75% 30.22 in 10.0 mi Calm Calm - N/A   Clear
2:13 AM 37.4 °F 32.0 °F 81% 30.22 in 10.0 mi Calm Calm - N/A   Clear
2:33 AM 35.6 °F 32.0 °F 87% 30.22 in 10.0 mi Calm Calm - N/A   Clear
2:53 AM 35.6 °F 30.2 °F 81% 30.22 in 10.0 mi Calm Calm - N/A   Clear
3:13 AM 35.6 °F 33.8 °F 93% 30.22 in 10.0 mi Calm Calm - N/A   Clear
3:33 AM 35.6 °F 33.8 °F 93% 30.23 in 10.0 mi Calm Calm - N/A   Clear
3:53 AM 35.6 °F 32.0 °F 87% 30.24 in 10.0 mi Calm Calm - N/A   Clear
4:13 AM 35.6 °F 32.0 °F 87% 30.25 in 10.0 mi Calm Calm - N/A   Clear
4:34 AM 33.8 °F 32.0 °F 93% 30.25 in 10.0 mi Calm Calm - N/A   Clear
4:53 AM 33.8 °F 32.0 °F 93% 30.25 in 10.0 mi Calm Calm - N/A   Clear
5:13 AM 33.8 °F 30.2 °F 87% 30.25 in 10.0 mi Calm Calm - N/A   Clear
5:34 AM 35.6 °F 28.4 °F 75% 30.25 in 10.0 mi Calm Calm - N/A   Clear
5:53 AM 33.8 °F 28.4 °F 81% 30.25 in 10.0 mi Calm Calm - N/A   Clear
6:13 AM 33.8 °F 30.2 °F 87% 30.26 in 10.0 mi Calm Calm - N/A   Clear
6:34 AM 33.8 °F 30.2 °F 87% 30.26 in 10.0 mi Calm Calm - N/A   Clear
6:53 AM 33.8 °F 30.2 °F 87% 30.27 in 10.0 mi Calm Calm - N/A   Clear
7:13 AM 33.8 °F 30.2 °F 87% 30.27 in 10.0 mi Calm Calm - N/A   Clear
7:34 AM 33.8 °F 30.2 °F 87% 30.27 in 10.0 mi Calm Calm - N/A   Clear
7:53 AM 37.4 °F 35.6 °F 93% 30.28 in 10.0 mi Calm Calm - N/A   Clear
8:13 AM 39.2 °F 39.2 °F 100% 30.28 in 10.0 mi Calm Calm - N/A   Clear
8:34 AM 46.4 °F 42.8 °F 87% 30.28 in 10.0 mi Calm Calm - N/A   Clear
8:53 AM 48.2 °F 42.8 °F 82% 30.27 in 10.0 mi Calm Calm - N/A   Clear
9:13 AM 50.0 °F 46.4 °F 87% 30.28 in 10.0 mi Calm Calm - N/A   Clear
9:33 AM 51.8 °F 42.8 °F 71% 30.27 in 10.0 mi Calm Calm - N/A   Clear
9:53 AM 57.2 °F 44.6 °F 63% 30.27 in 10.0 mi Calm Calm - N/A   Clear
10:13 AM 60.8 °F 42.8 °F 52% 30.27 in 7.0 mi Calm Calm - N/A   Clear
10:33 AM 60.8 °F 37.4 °F 42% 30.27 in 10.0 mi Calm Calm - N/A   Clear
10:53 AM 62.6 °F 33.8 °F 34% 30.26 in 10.0 mi Calm Calm - N/A   Clear
11:13 AM 62.6 °F 35.6 °F 37% 30.26 in 10.0 mi Calm Calm - N/A   Clear
11:33 AM 64.4 °F 35.6 °F 34% 30.25 in 10.0 mi NE 3.5 mph - N/A   Clear
11:53 AM 64.4 °F 35.6 °F 34% 30.25 in 10.0 mi East 5.8 mph - N/A   Clear
12:13 PM 64.4 °F 33.8 °F 32% 30.24 in 10.0 mi East 8.1 mph - N/A   Clear
12:33 PM 66.2 °F 32.0 °F 28% 30.23 in 10.0 mi ESE 3.5 mph - N/A   Clear
12:53 PM 66.2 °F 32.0 °F 28% 30.23 in 10.0 mi SE 4.6 mph - N/A   Clear
1:13 PM 66.2 °F 32.0 °F 28% 30.23 in 10.0 mi SE 4.6 mph - N/A   Clear
1:33 PM 68.0 °F 33.8 °F 28% 30.22 in 10.0 mi East 6.9 mph - N/A   Clear
1:53 PM 68.0 °F 32.0 °F 26% 30.22 in 10.0 mi Calm Calm - N/A   Clear
2:13 PM 69.8 °F 32.0 °F 25% 30.22 in 10.0 mi South 4.6 mph - N/A   Clear
2:33 PM 69.8 °F 32.0 °F 25% 30.21 in 10.0 mi SE 5.8 mph - N/A   Clear
2:53 PM 69.8 °F 33.8 °F 27% 30.21 in 10.0 mi SE 4.6 mph - N/A   Clear
3:13 PM 69.8 °F 30.2 °F 23% 30.21 in 10.0 mi Calm Calm - N/A   Clear
3:34 PM 71.6 °F 32.0 °F 23% 30.20 in 10.0 mi SSE 3.5 mph - N/A   Clear
3:53 PM 71.6 °F 32.0 °F 23% 30.20 in 10.0 mi Calm Calm - N/A   Clear
4:13 PM 71.6 °F 30.2 °F 22% 30.19 in 10.0 mi WSW 3.5 mph - N/A   Clear
4:33 PM 71.6 °F 30.2 °F 22% 30.19 in 10.0 mi Calm Calm - N/A   Clear
4:53 PM 71.6 °F 30.2 °F 22% 30.19 in 10.0 mi Calm Calm - N/A   Clear
5:34 PM 71.6 °F 28.4 °F 20% 30.18 in 10.0 mi Calm Calm - N/A   Clear
5:53 PM 68.0 °F 28.4 °F 23% 30.17 in 10.0 mi Calm Calm - N/A   Clear
6:13 PM 66.2 °F 30.2 °F 26% 30.18 in 10.0 mi Calm Calm - N/A   Clear
6:34 PM 62.6 °F 30.2 °F 30% 30.18 in 10.0 mi Calm Calm - N/A   Clear
6:53 PM 59.0 °F 26.6 °F 29% 30.19 in 10.0 mi Calm Calm - N/A   Clear
7:13 PM 55.4 °F 28.4 °F 36% 30.19 in 10.0 mi Calm Calm - N/A   Clear
7:33 PM 55.4 °F 26.6 °F 33% 30.18 in 10.0 mi Calm Calm - N/A   Clear
7:53 PM 53.6 °F 30.2 °F 41% 30.19 in 10.0 mi Calm Calm - N/A   Clear
8:14 PM 51.8 °F 30.2 °F 44% 30.18 in 10.0 mi Calm Calm - N/A   Clear
8:33 PM 50.0 °F 30.2 °F 47% 30.19 in 10.0 mi Calm Calm - N/A   Clear
8:53 PM 48.2 °F 32.0 °F 54% 30.19 in 10.0 mi Calm Calm - N/A   Clear
9:33 PM 46.4 °F 30.2 °F 53% 30.19 in 7.0 mi Calm Calm - N/A   Clear
9:53 PM 46.4 °F 33.8 °F 62% 30.18 in 10.0 mi Calm Calm - N/A   Clear
10:13 PM 46.4 °F 35.6 °F 66% 30.18 in 10.0 mi Calm Calm - N/A   Clear
10:33 PM 44.6 °F 35.6 °F 71% 30.18 in 10.0 mi Calm Calm - N/A   Clear
10:54 PM 44.6 °F 35.6 °F 71% 30.18 in 10.0 mi Calm Calm - N/A   Clear
11:13 PM 44.6 °F 35.6 °F 71% 30.18 in 10.0 mi Calm Calm - N/A   Clear
11:33 PM 44.6 °F 35.6 °F 71% 30.19 in 10.0 mi Calm Calm - N/A   Clear
11:54 PM 44.6 °F 35.6 °F 71% 30.19 in 10.0 mi Calm Calm - N/A   Clear